Weather History for Camden, SC

Change the Weather History Date:

Thursday, January 23, 2014

  Actual Average (KSSC) Record (KSSC)
Temperature  
Mean Temperature 32 °F -  
Max Temperature 42 °F 53 °F 75 °F (1999)
Min Temperature 21 °F 32 °F 15 °F (2003)
Degree Days  
Heating Degree Days 34    
Moisture  
Dew Point 13 °F    
Average Humidity 47    
Maximum Humidity 80    
Minimum Humidity 25    
Precipitation  
Precipitation 0.00 in - - ()
Sea Level Pressure  
Sea Level Pressure 30.26 in    
Wind  
Wind Speed 2 mph (WNW)    
Max Wind Speed 12 mph    
Max Gust Speed 16 mph    
Visibility 10 miles    
Events      
Averages and records for this station are not official NWS values.
T = Trace of Precipitation, MM = Missing Value Source: NWS Daily Summary

Daily Weather History Graph

Daily Weather History Graph

Search for Another Location

Airport:

Trip Planner

Search our weather history database for the weather conditions in past years. The results will help you decide how hot, cold, wet, or windy it might be!

Date:

Astronomy

Jan. 23, 2014 Rise Set
Actual Time 7:25 AM EST 5:43 PM EST
Civil Twilight 6:58 AM EST 6:10 PM EST
Nautical Twilight 6:27 AM EST 6:40 PM EST
Astronomical Twilight 5:58 AM EST 7:10 PM EST
Moon No Moon Rise 11:19 AM EST (1/23)
Length of Visible Light 11h 11m
Length of Day
10h 18m
Waning Gibbous, 55% of the Moon is Illuminated
Jan 23
Waning Gibbous
Jan 24
Last Quarter
Jan 30
New
Feb 6
First Quarter
Feb 14
Full

Hourly Weather History & Observations

Time (EST) Temp. Windchill Dew Point Humidity Pressure Visibility Wind Dir Wind Speed Gust Speed Precip Events Conditions
12:15 AM 30.2 °F - 14.0 °F 51% 30.11 in 10.0 mi Calm Calm - 0.00 in   Clear
12:35 AM 30.2 °F - 12.2 °F 47% 30.11 in 10.0 mi Calm Calm - 0.00 in   Clear
1:15 AM 26.6 °F - 15.8 °F 64% 30.12 in 10.0 mi Calm Calm - 0.00 in   Clear
1:35 AM 23.0 °F - 17.6 °F 80% 30.12 in 10.0 mi Calm Calm - 0.00 in   Clear
1:55 AM 28.4 °F 24.6 °F 14.0 °F 55% 30.13 in 10.0 mi SW 3.5 mph - 0.00 in   Clear
2:15 AM 26.6 °F - 14.0 °F 59% 30.14 in 10.0 mi Calm Calm - 0.00 in   Clear
2:35 AM 28.4 °F - 12.2 °F 51% 30.13 in 10.0 mi Calm Calm - 0.00 in   Clear
2:55 AM 26.6 °F - 14.0 °F 59% 30.14 in 10.0 mi Calm Calm - 0.00 in   Clear
3:15 AM 26.6 °F - 12.2 °F 55% 30.15 in 10.0 mi Calm Calm - 0.00 in   Clear
3:35 AM 26.6 °F 19.1 °F 10.4 °F 51% 30.15 in 10.0 mi WSW 6.9 mph - 0.00 in   Clear
3:55 AM 26.6 °F 20.0 °F 12.2 °F 55% 30.16 in 10.0 mi West 5.8 mph - 0.00 in   Clear
4:15 AM 26.6 °F - 10.4 °F 51% 30.16 in 10.0 mi Calm Calm - 0.00 in   Clear
4:35 AM 28.4 °F - 10.4 °F 47% 30.17 in 10.0 mi Calm Calm - 0.00 in   Clear
4:55 AM 26.6 °F - 10.4 °F 51% 30.17 in 10.0 mi Calm Calm - 0.00 in   Clear
5:15 AM 26.6 °F - 10.4 °F 51% 30.19 in 10.0 mi Calm Calm - 0.00 in   Clear
5:35 AM 26.6 °F - 10.4 °F 51% 30.20 in 10.0 mi Calm Calm - 0.00 in   Clear
5:55 AM 26.6 °F - 10.4 °F 51% 30.22 in 10.0 mi Calm Calm - 0.00 in   Clear
6:15 AM 26.6 °F - 10.4 °F 51% 30.22 in 10.0 mi Calm Calm - 0.00 in   Clear
6:35 AM 26.6 °F - 10.4 °F 51% 30.23 in 10.0 mi Calm Calm - 0.00 in   Clear
6:55 AM 26.6 °F - 10.4 °F 51% 30.24 in 10.0 mi Calm Calm - 0.00 in   Clear
7:15 AM 24.8 °F - 14.0 °F 64% 30.25 in 10.0 mi Calm Calm - 0.00 in   Clear
7:35 AM 21.2 °F - 15.8 °F 80% 30.26 in 10.0 mi Calm Calm - 0.00 in   Clear
7:55 AM 23.0 °F - 14.0 °F 68% 30.27 in 10.0 mi Calm Calm - 0.00 in   Clear
8:15 AM 23.0 °F - 17.6 °F 80% 30.28 in 10.0 mi Calm Calm - 0.00 in   Clear
8:35 AM 23.0 °F - 17.6 °F 80% 30.29 in 10.0 mi Calm Calm - 0.00 in   Clear
8:55 AM 26.6 °F - 17.6 °F 69% 30.30 in 10.0 mi Calm Calm - 0.00 in   Clear
9:15 AM 28.4 °F - 17.6 °F 64% 30.31 in 10.0 mi Calm Calm - 0.00 in   Clear
9:35 AM 30.2 °F - 14.0 °F 51% 30.32 in 10.0 mi Calm Calm - 0.00 in   Clear
9:55 AM 32.0 °F - 12.2 °F 44% 30.32 in 10.0 mi Calm Calm - 0.00 in   Clear
10:15 AM 32.0 °F - 10.4 °F 41% 30.31 in 10.0 mi Calm Calm - 0.00 in   Clear
10:35 AM 33.8 °F - 10.4 °F 38% 30.33 in 10.0 mi Calm Calm - 0.00 in   Clear
10:55 AM 33.8 °F - 10.4 °F 38% 30.33 in 10.0 mi Calm Calm - 0.00 in   Clear
11:15 AM 35.6 °F 31.7 °F 10.4 °F 35% 30.35 in 10.0 mi WNW 4.6 mph - 0.00 in   Clear
11:35 AM 35.6 °F - 10.4 °F 35% 30.34 in 10.0 mi Calm Calm - 0.00 in   Clear
11:55 AM 37.4 °F 32.1 °F 10.4 °F 33% 30.32 in 10.0 mi West 6.9 mph - 0.00 in   Clear
12:15 PM 37.4 °F 30.8 °F 8.6 °F 30% 30.30 in 10.0 mi WSW 9.2 mph - 0.00 in   Clear
12:35 PM 37.4 °F 34.9 °F 10.4 °F 33% 30.29 in 10.0 mi NW 3.5 mph - 0.00 in   Clear
12:55 PM 39.2 °F - 8.6 °F 28% 30.28 in 10.0 mi Calm Calm - 0.00 in   Clear
1:15 PM 39.2 °F - 8.6 °F 28% 30.27 in 10.0 mi Calm Calm - 0.00 in   Clear
1:35 PM 39.2 °F - 8.6 °F 28% 30.27 in 10.0 mi Calm Calm - 0.00 in   Clear
1:55 PM 41.0 °F 34.3 °F 10.4 °F 29% 30.26 in 10.0 mi West 11.5 mph 16.1 mph 0.00 in   Clear
2:15 PM 41.0 °F 36.4 °F 10.4 °F 29% 30.26 in 10.0 mi West 6.9 mph - 0.00 in   Clear
2:35 PM 42.8 °F - 10.4 °F 27% 30.26 in 10.0 mi Calm Calm - 0.00 in   Clear
2:55 PM 42.8 °F 38.6 °F 10.4 °F 27% 30.26 in 10.0 mi WSW 6.9 mph - 0.00 in   Clear
3:15 PM 42.8 °F 38.0 °F 8.6 °F 25% 30.27 in 10.0 mi WNW 8.1 mph 16.1 mph 0.00 in   Clear
3:35 PM 42.8 °F 37.0 °F 8.6 °F 25% 30.26 in 10.0 mi WNW 10.4 mph - 0.00 in   Clear
3:55 PM 42.8 °F 38.6 °F 10.4 °F 27% 30.26 in 10.0 mi West 6.9 mph - 0.00 in   Clear
4:15 PM 42.8 °F 38.0 °F 10.4 °F 27% 30.27 in 10.0 mi West 8.1 mph - 0.00 in   Clear
4:35 PM 42.8 °F 40.1 °F 10.4 °F 27% 30.27 in 10.0 mi WNW 4.6 mph - 0.00 in   Clear
4:55 PM 42.8 °F 39.3 °F 10.4 °F 27% 30.27 in 10.0 mi West 5.8 mph - 0.00 in   Clear
5:15 PM 42.8 °F 40.1 °F 12.2 °F 29% 30.28 in 10.0 mi WNW 4.6 mph - 0.00 in   Clear
5:35 PM 41.0 °F 39.0 °F 12.2 °F 31% 30.28 in 10.0 mi NNW 3.5 mph - 0.00 in   Clear
5:55 PM 39.2 °F - 12.2 °F 33% 30.30 in 10.0 mi Calm Calm - 0.00 in   Clear
6:15 PM 39.2 °F - 12.2 °F 33% 30.30 in 10.0 mi Calm Calm - 0.00 in   Clear
6:35 PM 35.6 °F - 17.6 °F 48% 30.30 in 10.0 mi Calm Calm - 0.00 in   Clear
6:55 PM 33.8 °F - 17.6 °F 52% 30.31 in 10.0 mi Calm Calm - 0.00 in   Clear
7:15 PM 33.8 °F - 17.6 °F 52% 30.31 in 10.0 mi Calm Calm - 0.00 in   Clear
7:35 PM 32.0 °F - 14.0 °F 48% 30.33 in 10.0 mi Calm Calm - 0.00 in   Clear
7:55 PM 32.0 °F - 17.6 °F 55% 30.33 in 10.0 mi Calm Calm - 0.00 in   Clear
8:15 PM 30.2 °F - 17.6 °F 60% 30.33 in 10.0 mi Calm Calm - 0.00 in   Partly Cloudy
8:35 PM 30.2 °F - 15.8 °F 55% 30.34 in 10.0 mi Calm Calm - 0.00 in   Clear
8:55 PM 32.0 °F - 17.6 °F 55% 30.34 in 10.0 mi Calm Calm - 0.00 in   Clear
9:15 PM 30.2 °F - 15.8 °F 55% 30.34 in 10.0 mi Calm Calm - 0.00 in   Clear
9:55 PM 30.2 °F - 17.6 °F 60% 30.35 in 10.0 mi Calm Calm - 0.00 in   Clear
10:15 PM 30.2 °F - 17.6 °F 60% 30.35 in 10.0 mi Calm Calm - 0.00 in   Clear
11:15 PM 32.0 °F 23.6 °F 12.2 °F 44% 30.38 in 10.0 mi NNE 10.4 mph - 0.00 in   Clear
11:35 PM 32.0 °F 23.6 °F 12.2 °F 44% 30.39 in 10.0 mi North 10.4 mph - 0.00 in   Clear
11:55 PM 32.0 °F 24.2 °F 10.4 °F 41% 30.39 in 10.0 mi North 9.2 mph 16.1 mph 0.00 in   Clear